[Iaude] MPEC B82: 2024 BY1 [a=2.50,e=0.66,i=0.8,H=25.7]

mpec at marsden.cfa.harvard.edu mpec at marsden.cfa.harvard.edu
Sun Jan 21 09:20:13 EST 2024


M.P.E.C. 2024-B82                              Issued 2024 January 21, 14:18 UT

     The Minor Planet Electronic Circulars contain information on unusual
         minor planets, routine data on comets and natural satellites,
         and occasional editorial announcements.  They are published
    on behalf of Division F of the International Astronomical Union by the
          Minor Planet Center, Smithsonian Astrophysical Observatory,
                          Cambridge, MA 02138, U.S.A.
			  
             Prepared using the Tamkin Foundation Computer Network

                              MPC at CFA.HARVARD.EDU
            URL https://www.minorplanetcenter.net/    ISSN 1523-6714

                                    2024 BY1                                    


Observations:
     K24B01Y*1C2024 01 19.48388111 06 34.981+21 21 43.85         20.83GVEB082G96
     K24B01Y 1C2024 01 19.48905411 06 29.603+21 21 29.27         20.61GVEB082G96
     K24B01Y 1C2024 01 19.49425511 06 24.224+21 21 15.19         20.50GVEB082G96
     K24B01Y 1C2024 01 19.52802911 05 49.500+21 19 40.40               VEB082G96
     K24B01Y 1C2024 01 19.52844411 05 49.070+21 19 39.30         20.46GVEB082G96
     K24B01Y KB2024 01 19.94143510 59 48.36 +21 01 10.0          20.3 GXEB082I93
     K24B01Y KB2024 01 19.95338010 59 37.95 +21 00 42.7          20.4 GXEB082I93
     K24B01Y IC2024 01 20.02053910 58 37.05 +20 58 16.5          20.2 GVEB082L01
     K24B01Y bC2024 01 20.02350510 58 34.42 +20 58 11.0          20.5 GVEB082L01
     K24B01Y bC2024 01 20.02647210 58 31.81 +20 58 03.4          20.3 GVEB082L01
     K24B01Y  C2024 01 20.45737010 52 55.199+20 42 12.70         20.78wXEB082F52
     K24B01Y  C2024 01 20.46975010 52 45.272+20 41 46.78         20.80wXEB082F52
     K24B01Y  C2024 01 20.48218910 52 35.298+20 41 20.65         21.22wXEB082F52
     K24B01Y 1C2024 01 20.54600910 51 37.494+20 38 19.14         20.80GVEB082G96
     K24B01Y 1C2024 01 20.54659810 51 37.040+20 38 17.81         20.65GVEB082G96
     K24B01Y 1C2024 01 20.54718610 51 36.580+20 38 16.73         20.96GVEB082G96
     K24B01Y 1C2024 01 20.54777910 51 36.140+20 38 15.04               VEB082G96
     K24B01Y 1C2024 01 20.54836810 51 35.687+20 38 13.67         20.77GVEB082G96
     K24B01Y 1C2024 01 20.54895710 51 35.240+20 38 12.16         21.47GVEB082G96
     K24B01Y 1C2024 01 20.54954610 51 34.780+20 38 10.68         20.90GVEB082G96
     K24B01Y 1C2024 01 20.55013910 51 34.326+20 38 09.56         20.48GVEB082G96
     K24B01Y 1C2024 01 20.55072810 51 33.865+20 38 07.98         21.37GVEB082G96
     K24B01Y 1C2024 01 20.55131610 51 33.347+20 38 06.76         20.88GVEB082G96
     K24B01Y 1C2024 01 20.55190510 51 32.958+20 38 04.99         21.40GVEB082G96
     K24B01Y KB2024 01 21.06067 10 45 53.42 +20 19 43.1          19.6 RZEB082106
     K24B01Y KB2024 01 21.07332 10 45 44.80 +20 19 17.6                ZEB082106
     K24B01Y KB2024 01 21.08574 10 45 36.35 +20 18 53.0          19.6 RZEB082106

Observer details:
106 Crni Vrh.  Observer J. Vales.  0.60-m f/3.3 reflector + CMO.
F52 Pan-STARRS 2, Haleakala.  Observers J. Herman, T. Lowe, P. Minguez, A.
    Schultz, I. Smith.  Measurers K. Chambers, T. de Boer, J. Fairlamb, H.
    Gao, M. Huber, C.-C. Lin, E. Magnier, Y. Ramanjooloo, R. Wainscoat, R.
    Weryk.  1.8-m Ritchey-Chretien + CCD.
G96 Mt. Lemmon Survey.  Observer A. R. Gibbs.  Measurers T. Beuden, V. F.
    Carvajal, D. Fay, J. B. Fazekas, D. C. Fuls, A. R. Gibbs, A. D. Grauer, H.
    Groeller, J. K. Hogan, R. A. Kowalski, S. M. Larson, G. J. Leonard, D.
    Rankin, R. L. Seaman, F. C. Shelly, K. W. Wierzchos.  1.5-m reflector +
    10K CCD.
I93 St Pardon de Conques.  Observer F. Losse.  0.40-m f/3.7 reflector + CMO.
L01 Visnjan Observatory, Tican.  Observer K. Korlevic.  1.0-m f/2.9 reflector
    + CCD.

Orbital elements:
2024 BY1                                                 Earth MOID = 0.0029 AU
Epoch 2023 Sept. 13.0 TT = JDT 2460200.5                Veres                   
M 337.63035              (2000.0)            P               Q                  
n   0.24901755     Peri.   64.73847     +0.42689080     -0.90430318             
a   2.5021658      Node   359.99113     +0.82465678     +0.38929341             
e   0.6629186      Incl.    0.78789     +0.37108683     +0.17517533             
P   3.96           H   25.71          G   0.15           U   8                  
Residuals in seconds of arc
240119 G96  0.6+  0.6-    240120 L01  0.2-  0.2+    240120 G96  0.2+  0.1-
240119 G96  0.6+  0.9-    240120 F52  0.6+  0.2+    240120 G96  0.1+  0.1-
240119 G96  0.8+  0.5-    240120 F52  0.2+  0.1+    240120 G96  0.1+  0.2+
240119 G96  0.7+  0.7-    240120 F52  0.2-  0.0     240120 G96  0.0   0.0
240119 G96  0.6+  0.6-    240120 G96  0.1-  0.3-    240120 G96  1.0-  0.2+
240119 I93  0.2-  0.0     240120 G96  0.1-  0.2-    240120 G96  0.1-  0.1-
240119 I93  0.7+  0.9-    240120 G96  0.2-  0.2+    240121 106  2.9-  0.1-
240120 L01  0.3-  0.5-    240120 G96  0.1+  0.1-    240121 106  2.3-  0.1-
240120 L01  0.4-  0.9+    240120 G96  0.1+  0.0     240121 106  1.9-  0.5+

Ephemeris:
2024 BY1                 a,e,i = 2.50, 0.66, 1                   q = 0.8434
Date    TT    R. A. (2000) Decl.     Delta      r    Elong.  Phase     V
2023 12 22    20 53 33.9 -13 41 17   0.1837  0.8575    42.6   129.1    27.3
...
2024 01 06    20 15 37.6 -08 15 17   0.06366 0.9248    22.4   156.1    29.4
...
2024 01 14    15 25 39.4 +19 50 07   0.02043 0.9783    74.5   104.4    21.1
...
2024 01 20    10 58 51.4 +21 00 22   0.05234 1.0243   139.4    38.7    20.9
2024 01 21    10 46 32.5 +20 22 52   0.05957 1.0323   143.2    34.9    21.1
2024 01 22    10 36 54.1 +19 51 24   0.06694 1.0405   146.3    31.6    21.3
...
2024 01 28    10 05 31.5 +18 00 03   0.1130  1.0912   159.3    18.6    22.1
...
2024 02 05    09 48 02.3 +16 58 56   0.1787  1.1627   171.1     7.5    22.8
...
2024 02 20    09 34 48.4 +16 08 56   0.3186  1.3036   170.1     7.5    24.3

M. P. C. Staff               (C) Copyright 2024 MPC           M.P.E.C. 2024-B82





More information about the Iaude mailing list